Regional Weather Roundup
Issued by NWS

Home | Current Version | Previous Version | Text Only | Print | Product List | Glossary On
Versions: 1 2 3 4 5 6 7 8 9 10 11 12 13 14 15 16 17 18 19 20 21 22 23 24 25 26 27 28 29 30 31 32 33 34 35 36 37 38 39 40 41 42 43 44 45 46 47 48 49 50
000
ASUS45 KTFX 030519
RWRMT
MONTANA HOURLY WEATHER ROUNDUP
NATIONAL WEATHER SERVICE GREAT FALLS MT
1019 PM MST MON MAR 2 2015

NOTE: "FAIR" INDICATES FEW OR NO CLOUDS BELOW 12000 FEET WITH NO
SIGNIFICANT WEATHER AND/OR OBSTRUCTIONS TO VISIBILITY.

* THESE STATIONS ARE NOT UNDER NWS QUALITY CONTROL. THEY DO NOT
   REPORT WEATHER SUCH AS PRECIPITATION OR FOG.

MTZ001>007-043-030600-
WEST OF THE DIVIDE
CITY           SKY/WX    TMP DP  RH WIND       PRES   REMARKS
KALISPELL      CLOUDY    25   5  42 NE20      30.06R WCI  11
MISSOULA       CLOUDY    23  12  63 SE16      30.00R WCI  10
BUTTE          LGT SNOW  12   5  73 N14G25    29.83R VSB 3    WCI  -4
MULLAN PASS    LGT SNOW  12  10  92 CALM      29.81R VSB 1
* ANACONDA     CLOUDY    14   5  67 N17G28     N/A   WCI  -2
* ESSEX        N/A       17   3  54 NE8G14     N/A   WCI   7
* EUREKA APT   PTCLDY    25  -2  30 NE16G24   30.10R WCI  12
* HAMILTON APT CLOUDY    21  18  88 N17       29.89R VSB 1/2  WCI   7
* LIBBY APT    PTCLDY    21  19  92 CALM      30.09R
* LINCOLN      N/A       15   6  67 NE13G21    N/A   WCI   1
* LOOKOUT PASS N/A       18  14  84 NW4G14     N/A
* POLSON       N/A       22   7  52 NE2G7      N/A
* RONAN APT    CLOUDY    27   5  39 NE9        N/A   WCI  18
* SEELEY LAKE  N/A       18  12  77 NE2G7      N/A
* THOMP F APT  MOCLDY    26   8  46 NW5G16     N/A   WCI  20
* YAAK HILL    N/A       29  14  53 E2G7       N/A
$$

MTZ008-052>055-030600-
SOUTHWEST MONTANA
CITY           SKY/WX    TMP DP  RH WIND       PRES   REMARKS
BOZEMAN        LGT SNOW  19  16  88 N18G23    29.88R VSB 1 3/4 WCI   4
DILLON         CLOUDY    18   9  68 NE26G36   29.77R
* W YELLOWSTON MOCLDY    22  10  60 NW5G14     N/A   WCI  15
* THREE FORKS  CLOUDY    19   9  65 N17G24     N/A   WCI   4
* BOULDER HILL N/A       10   5  80 N20G31     N/A   WCI  -9
* MONIDA PASS  N/A       20  11  68 NE15G21    N/A   WCI   6
* RAYNOLDS PAS N/A       13  12  96 N21G30     N/A   WCI  -5
* WHITEHALL    N/A       19   6  57 NE15G27    N/A   WCI   5
* WISE RIVER   N/A       15   3  59 E18G29     N/A   WCI  -2
$$

MTZ009>010-012-014-046-048-049-054-030600-
EAST SLOPES AND CENTRAL MONTANA
CITY           SKY/WX    TMP DP  RH WIND       PRES   REMARKS
CUT BANK       CLOUDY    10   7  88 N14       30.13R WCI  -6
GREAT FALLS    LGT SNOW  14   9  80 NE16      30.10R WCI  -2
HELENA         CLOUDY    19   9  65 N14       30.02R WCI   5
MALMSTROM AFB  CLOUDY    14   7  73 NE21G28   30.12R WCI  -4
* CONRAD       CLOUDY    16   7  67 N12G20     N/A   WCI   3
* EAST GLACIER N/A        9   5  84 E14        N/A   WCI  -7
* MONARCH      N/A        9   5  84 N13G21     N/A   WCI  -7
* PENDROY      N/A       11   8  88 NE15       N/A   WCI  -5
* ROGERS PASS  N/A        9   6  87 S6G12      N/A   WCI  -1
* SWEET GRASS  N/A        9   3  76 NE14       N/A   WCI  -7
* WHITE SULPH  N/A       13   7  77 NW13G21    N/A   WCI  -2
$$

MTZ011-013-016-021-035-040-045-047-050-051-030600-
NORTH CENTRAL MONTANA
CITY           SKY/WX    TMP DP  RH WIND       PRES   REMARKS
HAVRE          CLOUDY    16   3  56 N14G23    30.15R WCI   2
LEWISTOWN      LGT SNOW  16  10  77 N8        30.01R VSB 2    WCI   5
* N BAR RANCH  HAZE      12   7  80 N15       29.97R VSB 1 1/2 WCI  -4
* CHINOOK      CLOUDY    16   1  51 NW15G25   30.16R WCI   1
* FORT BENTON  CLOUDY    18   5  57 N15       30.17R WCI   4
* CHESTER      N/A       14   3  61 N15G27     N/A   WCI  -1
* DENTON       N/A       17  10  74 NW21G30    N/A
* GEYSER       N/A       15   7  70 N19        N/A   WCI  -2
* JUDITH GAP   N/A       13  12  96 N30G42     N/A   WCI  -8
* LOMA         N/A       17   7  65 N15G22     N/A   WCI   2
$$

MTZ017>020-022>027-061-062-030600-
NORTHEAST MONTANA
CITY           SKY/WX    TMP DP  RH WIND       PRES   REMARKS
GLASGOW        CLOUDY    16   7  67 NW23      30.04R WCI  -2
GLENDIVE       CLOUDY    18   9  68 N23G30    29.95R WCI   1
JORDAN         CLOUDY    18   9  68 N21G26    30.00R WCI   1
SIDNEY         CLOUDY    18   9  68 NW16G23   29.99R WCI   3
WOLF POINT     CLOUDY    19   9  65 N13G25    30.05R WCI   6
* BEAVER HILL  N/A       17  13  84 NW22G31    N/A
* CIRCLE       N/A       18  10  71 N10G18     N/A   WCI   6
* LINDSAY DVD  N/A       14   9  80 NW21G30    N/A   WCI  -4
* NAVAJO       N/A       10   3  73 N34G40     N/A   WCI -13
* PLENTYWOOD A CLOUDY    10   3  73 NW30G40   29.94R VSB 3    WCI -12
* POPLAR APT   CLOUDY    16   7  67 NW26G31   30.03R WCI  -3
* SACO         N/A       16   7  67 NW20G27    N/A   WCI  -1
$$

MTZ028>042-056>058-030600-
SOUTHCENTRAL AND SOUTHEAST MONTANA
CITY           SKY/WX    TMP DP  RH WIND       PRES   REMARKS
BAKER          CLOUDY    19  12  74 N20       29.87R WCI   3
BILLINGS       LGT SNOW  19  16  88 N15G23    29.98R VSB 3/4  WCI   5
LIVINGSTON     LGT SNOW  18  10  71 E20       29.91R WCI   2
MILES CITY     LGT SNOW  21  12  68 N25G31    29.95R WCI   4
* BIG TIMBER A CLOUDY    16  10  77 N16G22    29.95R WCI   1
* FORSYTH APT  PTCLDY    19  12  74 N14       29.98R WCI   5
* LAUREL APT   CLOUDY    19  12  74 N8         N/A   WCI   9
* ROUNDUP APT  CLOUDY    18   9  68 S17G24     N/A   WCI   3
* ALZADA       N/A       28  19  69 NW13G19    N/A   WCI  17
* HYSHAM       N/A       19  12  74 N6G14      N/A   WCI  11
* LAME DEER    N/A       16  14  92 N15G28     N/A   WCI   1
* REED POINT   N/A       20  17  88 NE5G11     N/A   WCI  13
* ROSCOE HILL  N/A       14  10  84 NE17       N/A   WCI  -2
$$

REGIONAL REPORTS...DAKOTAS
CITY           SKY/WX    TMP DP  RH WIND       PRES   REMARKS
WILLISTON      LGT SNOW  18   9  68 N16G25    29.95R WCI   3
DICKINSON      CLOUDY    18   9  68 N17G28    29.83R WCI   3
BEACH          LGT SNOW  16  14  92 N17G23    29.89R
CROSBY         CLOUDY    10   5  80 N28G41    29.92R WCI -12
TIOGA          FOG       12   9  88 N32G38    29.92R WCI -10
WATFORD CITY   LGT SNOW  16  10  77 N21       29.90R WCI  -1
BISMARCK       CLOUDY    28  19  69 NW24G31   29.78R WCI  14
GRAND FORKS    MOCLDY    25  18  75 S18       29.77F WCI  11
FARGO          PTCLDY    27  18  69 S24G33    29.81F WCI  12
BUFFALO SD     CLOUDY    25  18  75 N24G31    29.71R WCI  10
RAPID CITY     LGT SNOW  36  23  59 N9        29.70R WCI  29
$$

REGIONAL REPORTS...WYOMING/IDAHO/WASHINGTON
CITY           SKY/WX    TMP DP  RH WIND       PRES   REMARKS
GILLETTE       CLOUDY    27  19  72 N25       29.71R WCI  12
SHERIDAN       LGT SNOW  25  21  85 N15       29.84R VSB 3/4  WCI  13
CODY           CLOUDY    19  16  88 N22G29    29.81R WCI   2
YELLOWSTONE LA CLOUDY    19  14  81 CALM      29.64R
SALMON         CLOUDY    34  19  54 N14       29.73R WCI  24
MULLAN PASS    LGT SNOW  12  10  92 CALM      29.81S VSB 1
SAND POINT     CLOUDY    32  16  52 N16G29    30.03R WCI  21
SPOKANE        LGT SNOW  30  28  92 N14       29.97R VSB 1 1/2 WCI  19
$$

REGIONAL REPORTS...ALBERTA
CITY           SKY/WX    TMP DP  RH WIND       PRES   REMARKS
CALGARY        FAIR       7   0  73 N8        30.18R WCI  -6
LETHBRIDGE     PTCLDY    12   0  58 N7        30.22R WCI   1
MEDICINE HAT   CLEAR     10   3  73 N12G18    30.22R WCI  -5
EDMONTON       N/A        5  -8  54 NW14      30.29R WCI -12
WATERTON GATE  N/A       10   7  88 NE2        N/A
CARDSTON       N/A       12   9  88 NE7        N/A   WCI   1
MILK RIVER     N/A        9   3  76 N14        N/A   WCI  -7
$$

REGIONAL REPORTS...SASKATCHEWAN
CITY           SKY/WX    TMP DP  RH WIND       PRES   REMARKS
SWIFT CURRENT  CLOUDY     5  -2  72 NW18G24   30.05R WCI -15
REGINA         SNOW       5   0  80 NW25G32   29.97S WCI -17
VAL MARIE      N/A       10   5  80 N23G29     N/A   WCI -10
ASSINIBOIA     N/A        7   1  76 NW25       N/A   WCI -15
CORONACH       N/A        9   3  76 NW24G31    N/A   WCI -12

$$




USA.gov is the U.S. government's official web portal to all federal, state and local government web resources and services.